Weather in Lignano Sabbiadoro

Italy     45°41′03″N   13°07′29″E
temp.,
°C
wind,
m/s
gust,
m/s
humid.,
%
clouds,
%
prec.,
mm/h
press.,
hPa
HPBL,
m
8 may, sat
sat823:00+11ene512855 0.9 1014290
02:00+11ene51079100 0.9 1016251
05:00+10ne51078100 0.0 1019247
08:00+11ne6106887 0.0 1020525
11:00+15ene4551100 0.0 10211017
14:00+18se224597 0.0 10201240
17:00+18sse2149100 0.0 1020934
20:00+14ssw23695 0.0 102035
9 may, sun
sun923:00+12n116955 0.0 102110
02:00+11ne22775 0.0 102118
05:00+10nne22825 0.0 102019
08:00+13nne22685 0.0 1021154
11:00+18ne01525 0.0 1020656
14:00+21s32485 0.0 10191145
17:00+20ssw33495 0.0 1018706
20:00+16ssw336898 0.0 101844
10 may, mon
mon1023:00+14ssw116911 0.0 101911
02:00+13ene227321 0.0 101813
05:00+12ene2282100 0.0 101821
08:00+15ene22752 0.0 1019170
11:00+19se22590 0.0 1019771
14:00+20sse33605 0.0 1017822
17:00+20sse346096 0.0 1016607
20:00+17s117455 0.0 101611
11 may, tue
tue1123:00+16nne347899 0.0 101664
02:00+15ne228035 0.0 101631
05:00+14ene22815 0.0 101521
08:00+17nne117098 0.0 1015143
11:00+19ese2365100 0.0 1014377
14:00+22wsw2259100 0.0 10121032
17:00+19s5776100 1.4 1011391
20:00+16n3390100 3.8 1009171
12 may, wed
wed1223:00+14nne3695100 7.3 1008198
02:00+14nne4696100 16.4 1004235
05:00+13n5995100 4.3 1000389
08:00+14e4694100 15.6 1000374
11:00+16n2383100 0.9 1001476
14:00+14n3592100 5.8 1002338
17:00+14nne6991100 3.8 1003355
20:00+13nne4987100 4.7 1005324